Track LAPAN A2 (IO-86) now! 10-day predictions LAPAN A2 (IO-86) is classified as:
1 40931U 15052B 22147.44772288 .00001111 00000-0 65321-4 0 9993 2 40931 5.9996 318.8985 0013359 238.0613 121.8562 14.76808104360231